Showing default

GONETS D1 1, 23787

Orbit data source: Space-Track

GONETS D1 1, 23787 is a payload satellite owned by Gonets (CIS) in LEO that was launched on Mon, 19 Feb 1996 UTC via a TSIKLON-3 launch vehicle from the Plesetsk Missile And Space Complex (PKMTR). Payload-class satellites include a variety of spacecraft equipped with specific instruments for various scientific and technological missions. These include communications satellites like Starlink; space stations such as the ISS; scientific satellites like the Hubble; Earth observation satellites from companies like Planet Labs, Umbra, and HawkEye 360; GPS; miniature CubeSats for education and research; and military/defense satellites.

Loading next visibility...
Identifier
23787, 1996-009A
Orbit
LEO
Country
Flag of CISCIS
Related business
Manufacturer
NPO PM
Mission
Non-operational Civil Communications
Bus & Motor
STRELA-3, Unknown motor
Mass
225 kg wet, 225 kg dry
Launch date (UTC)
1996-02-19 (30 years ago)
Launch vehicle
TSIKLON-3
Launch site
Plesetsk Missile And Space Complex (PKMTR)
Object type
Payload
Rocket body
Debris
Shape & HBR
Cyl + 1 Ant, 3.5 m
Radar Cross Section
1.798 m², Medium (>0.1 m² and < 1m²)

Expand to show TLE details & history
Last TLE update: 7 hours ago

TLE from 7 hours ago
0 GONETS D1 1
1 23787U 96009A   26124.52311731  .00000027  00000-0  90042-4 0  9997
2 23787  82.5762 326.8659 0011755 138.1252 282.2232 12.64106424393791
Epoch: 2026-05-04T12:33Z
TLE epoch observation values (Epoch: 2026-05-04T12:33:17.335Z)
Latitude
59.47678°
Longitude
-71.16376°
Altitude
1,414.16 km
Speed
7.16 km/s
True Right ascension
22h 38m 16s
True Declination
59° 20' 20"
Sunlit
Object was in daylight at epoch
Visualization orbit readout
Latitude
Unknown
Longitude
Unknown
Altitude
Unknown
Speed
Unknown
Apparent Right ascension
Unknown
Apparent Declination
Unknown
Sunlit
N/A
Visualization observer readout
Local Sidereal Time
03:49:56
Azimuth
Unknown
Elevation
Unknown
Doppler factor
Unknown
Orbital elements
Apogee altitude
1,412.506 km
Perigee altitude
1,394.212 km
Semi-major axis
7,781.496 km
Eccentricity
0.00118
Inclination
82.5762°
RAAN
326.8659°
Arg. of periapsis
138.1252°
True anomaly
282.09151°
Mean anomaly
282.2232°
Eccentric anomaly
282.15736°
Mean motion
3.1619 °/min
Orbital period
113.86 mins
BSTAR
0.000090042
Loading maneuver chart data...
Computing Atmospheric mass density...
Loading historical data...
Loading historical data...
Loading historical data...
Loading historical data...
Loading historical data...
Loading historical data...
Loading historical data...

Documentation

Showing up to 5 results
|